Dewpoint
-4 -4 -5 -6 -7 -7 -7 -7 -6 -6 -5 -5 -4 -3 -2 -0 -0 -0 2 2 2 3 7 7 5 3 3 3 6 10 12 13 13 14 13 11 15 15 15 15 15 13 15 14 15
-2 -4 -5 -5 -6 -7 -8 -8 -7 -7 -6 -6 -5 -4 -3 -1 -1 -2 1 1 5 6 7 7 6 2 2 3 6 8 10 9 10 11 12 12 14 15 15 16 16 13 15 15 15
-1 -2 -4 -5 -6 -7 -8 -9 -9 -9 -9 -8 -7 -6 -4 -3 -3 -1 -1 1 -1 5 6 6 4 1 2 2 6 7 7 8 7 10 10 11 12 13 15 16 14 12 14 15 15
-1 -1 -2 -4 -5 -6 -7 -8 -9 -10 -11 -12 -11 -9 -7 -6 0 -0 -2 -3 -3 -4 4 5 1 0 2 3 4 4 2 6 7 6 10 11 11 12 13 12 11 10 15 15 15
-3 -2 -1 -2 -3 -5 -6 -7 -8 -9 -11 -13 -15 -15 -13 -6 -3 -3 -1 -4 -5 -4 1 2 0 0 1 2 1 3 2 4 5 5 8 8 11 12 13 12 12 13 14 15 14
-5 -5 -3 -2 -2 -3 -5 -7 -8 -8 -10 -12 -16 -18 -14 -2 -1 -2 -1 -1 -4 -4 3 -0 -1 -1 1 2 2 -0 1 4 4 5 7 9 10 11 14 13 11 12 15 14 14
-6 -6 -5 -4 -2 -2 -4 -6 -7 -7 -8 -12 -15 -15 -15 -10 -5 0 -1 -3 -4 -1 -1 -0 -1 -1 0 1 1 0 1 2 0 -2 5 8 10 12 13 13 11 12 14 14 14
-6 -7 -7 -5 -4 -2 -3 -5 -7 -7 -8 -11 -13 -12 -17 -12 -10 -8 -8 -6 -3 -3 -3 -2 -2 -3 0 -0 -1 2 2 5 4 -1 -1 1 5 10 13 14 14 13 13 14 14
-6 -7 -7 -7 -5 -3 -3 -5 -7 -7 -8 -11 -11 2 -7 -4 -7 -8 -7 -4 -3 -5 -2 -3 -5 -5 -3 -1 1 3 4 6 3 1 -1 -2 0 8 12 13 14 14 14 14 13
-7 -7 -8 -8 -6 -3 -3 -6 -8 -7 -8 -10 -5 3 -4 -3 -6 -8 -6 -4 -4 -4 -5 -5 -5 -4 -4 -2 1 4 5 4 4 2 0 -2 -2 7 8 10 11 12 13 12 12
-7 -7 -7 -8 -7 -4 -4 -7 -6 -4 -7 -14 -8 -2 -3 -5 -6 -7 -3 -4 -4 -4 -4 -5 -4 -3 -4 -4 -3 -1 -1 -2 -2 2 -1 -0 -1 6 8 7 10 11 12 11 12
-8 -6 -3 -6 -7 -4 -5 -3 1 -1 -1 -2 -3 -7 -5 -5 -11 -8 -4 -6 -5 -3 -4 -3 -3 -5 -6 -5 -3 -3 -4 -4 -3 -0 -2 -0 1 1 7 7 8 10 11 11 11
-8 -2 -2 -5 -7 -5 -5 -3 -4 -4 -1 -1 -2 -5 -7 -6 -7 -7 -6 -4 -4 -3 -3 -2 -3 -5 -5 -5 -6 -6 -5 -4 -4 -3 -3 -1 2 5 4 7 6 10 11 11 11
-7 -0 -2 -6 -6 -5 -5 -3 -2 -2 1 1 -1 -3 -6 -7 -6 -6 -5 -4 -4 -3 -3 -3 -4 -5 -6 -8 -7 -6 -8 -4 -1 -0 1 -1 3 2 1 2 6 8 11 11 11
-3 0 -3 -7 1 0 2 -0 -1 -0 7 1 -3 -6 -8 -8 -5 -5 -5 -4 -4 -3 -4 -2 -4 -6 -7 -8 -9 -7 -8 -4 -1 3 2 1 2 2 3 1 2 4 10 11 11
-1 0 -3 -7 2 2 0 -0 -1 3 6 -0 -4 -6 -6 -6 -5 -4 -4 -5 -5 -4 -4 -3 -5 -8 -8 -9 -9 -7 -5 -2 6 7 7 4 4 5 4 2 2 1 2 10 11
1 1 -3 -6 1 1 1 0 2 5 0 -0 -1 -4 -4 -3 -4 -4 -4 -4 -3 -1 -1 -2 -3 -8 -8 -6 -6 -5 -3 1 7 10 9 7 5 4 2 1 7 12 10 10 11
2 0 -3 -5 2 2 1 1 5 4 6 2 -2 -2 -1 -3 -4 -3 -4 -3 -5 -3 -1 1 4 -5 -8 -6 -5 -3 -3 1 4 10 7 5 5 5 10 11 12 11 11 13 13
-4 -3 -4 -0 2 2 3 4 4 7 5 3 -4 -2 -2 -3 -3 -3 -3 -3 -4 -4 2 3 2 -1 -6 -6 -5 -3 -0 -2 0 3 5 7 6 3 8 11 11 11 11 12 14
4 4 -4 -0 1 3 4 4 2 3 2 -1 -0 -2 -1 -2 -2 -2 -2 -1 0 -1 -2 -1 1 -1 0 -5 -4 -3 -3 1 1 4 7 9 8 6 11 13 12 11 9 11 12
3 6 -1 1 -0 2 4 4 1 -2 -3 1 -0 5 6 3 1 2 2 -1 -2 -1 -1 -1 -0 -0 -0 0 -0 -2 -1 -1 3 4 7 10 10 8 12 14 13 11 8 10 14
6 6 2 0 2 3 3 1 -1 -2 -3 -4 -3 5 5 4 4 2 2 -0 -0 -1 2 -1 -0 0 -1 -3 -6 -5 -3 1 5 5 3 6 9 7 11 12 15 15 12 14 14
4 7 2 1 3 2 1 0 -1 -2 -2 -0 1 0 3 6 6 2 1 -1 -2 -0 -0 -1 -1 -1 -2 -4 -4 -3 -5 -7 -2 2 0 10 11 8 12 15 15 14 12 10 10
4 7 1 1 1 1 0 0 2 -1 -1 -1 1 -0 -0 1 0 1 1 -1 -3 -3 -4 -2 -3 -3 -2 -3 -2 -2 -3 -5 -6 -3 -3 4 13 13 14 14 12 11 9 10 11
5 6 4 5 -1 -0 -1 -0 1 -1 -2 -1 0 1 0 1 1 0 -0 -2 -3 -2 -3 -6 -3 -0 -1 -1 -2 -2 -2 -3 -4 -6 -6 5 14 12 11 13 13 12 11 10 10
1 3 3 4 5 2 0 -0 1 0 -0 1 2 1 1 2 0 -1 -2 -4 -1 -2 -2 -3 -0 -0 -0 -0 1 1 -1 -1 -2 3 10 11 11 9 7 8 8 10 10 9 9
2 3 5 5 3 2 1 2 2 2 1 -1 2 2 1 -1 -4 -4 -3 -4 -8 -7 -6 -2 -1 0 1 1 2 1 3 1 3 3 8 10 8 5 5 3 7 9 8 8 8
Wind_Speed
6 6 6 5 5 5 5 5 6 6 6 7 8 8 9 10 8 9 7 5 8 11 12 14 16 17 19 7 9 8 4 3 5 5 4 7 7 4 8 13 8 7 19 18 37
8 7 7 7 7 6 6 7 7 7 7 8 8 8 9 11 12 11 7 8 5 9 12 16 21 24 14 7 5 5 4 3 6 7 6 14 17 13 6 7 2 10 20 30 36
8 8 9 8 8 8 8 8 8 8 8 8 8 8 9 11 12 3 6 5 5 10 12 15 18 18 10 1 5 5 5 5 6 13 16 11 14 11 19 4 13 25 27 34 36
9 9 9 9 9 9 9 9 9 8 9 8 8 8 10 8 2 1 3 4 8 9 12 14 17 19 4 1 8 7 6 8 9 8 15 9 15 8 16 6 13 25 35 33 33
9 10 10 10 10 9 9 9 8 8 8 8 8 8 8 6 11 5 4 7 9 9 11 15 17 19 4 7 2 6 5 9 14 10 15 14 11 8 10 15 19 29 27 33 39
10 10 10 9 9 9 9 9 8 8 8 7 7 7 6 5 4 3 1 5 7 7 8 13 20 20 6 4 1 6 3 5 10 12 14 9 6 11 16 25 27 35 32 38 44
11 10 10 9 9 9 9 8 7 7 6 6 6 6 10 15 4 8 4 7 2 4 10 13 18 17 14 10 20 13 1 2 2 5 5 20 1 7 31 32 33 39 38 40 43
12 11 9 9 8 8 8 7 6 6 5 5 5 6 8 2 11 15 5 10 7 8 11 12 14 17 6 11 11 5 3 3 5 4 6 8 5 6 35 31 31 34 38 38 38
12 11 9 8 8 7 6 6 6 5 5 4 3 5 7 5 11 15 10 10 5 3 6 6 12 7 10 4 6 5 5 2 1 7 4 4 5 8 35 30 29 31 37 35 34
13 11 9 7 7 5 6 5 5 5 5 5 7 6 8 5 8 13 15 11 8 8 9 10 4 3 5 5 4 6 4 0 5 7 4 4 4 8 29 26 28 30 32 33 35
14 10 8 7 6 5 5 3 2 2 10 9 4 6 4 5 9 9 12 10 12 5 6 6 2 8 13 8 8 7 2 2 3 7 6 7 6 8 21 20 21 26 33 36 33
14 9 8 7 6 6 7 5 4 4 8 13 19 22 13 8 11 11 12 8 1 4 1 5 6 15 6 8 8 1 2 4 5 4 3 3 7 9 12 21 27 32 32 37 33
12 8 6 5 5 6 9 9 4 11 3 9 16 18 9 9 11 15 19 15 4 3 6 6 13 8 7 8 2 2 2 6 6 3 3 1 9 7 7 20 23 34 43 39 40
10 7 4 5 5 5 3 5 2 1 4 5 5 8 19 11 5 19 23 12 4 11 6 7 15 9 8 1 4 2 4 8 5 3 2 4 5 7 4 7 14 22 29 35 39
8 6 5 10 6 10 5 2 4 1 2 5 5 6 10 12 1 5 26 22 6 8 3 9 8 7 3 5 5 8 6 3 2 2 2 2 4 7 3 3 5 13 29 36 42
7 5 6 13 9 4 6 4 5 5 4 3 7 6 6 7 6 11 21 11 7 2 2 9 12 3 7 3 4 5 3 8 6 4 3 1 5 5 3 5 4 6 26 39 40
5 5 8 13 11 5 5 2 5 3 6 0 4 7 7 7 5 6 7 3 5 2 4 6 8 4 2 1 6 4 7 4 4 5 5 1 4 6 5 3 16 25 33 11 33
5 6 9 15 9 7 4 5 3 3 5 1 6 6 7 5 6 8 6 4 5 4 1 2 7 7 4 7 7 4 8 5 2 3 5 4 4 7 14 23 24 35 39 40 28
2 3 6 18 10 5 2 3 6 6 5 1 5 4 4 7 6 5 8 4 6 10 7 3 7 6 3 4 8 2 0 6 4 1 3 2 4 2 12 14 18 22 31 42 44
4 4 4 19 11 6 4 5 4 5 6 9 4 2 2 5 8 5 3 3 3 1 5 3 3 3 6 3 5 1 4 3 4 1 2 3 1 2 5 6 8 14 26 29 22
5 4 10 20 12 2 3 6 6 13 12 9 6 2 1 3 1 2 3 4 3 3 14 3 3 6 5 5 5 7 7 5 4 5 5 3 4 3 6 7 10 10 9 21 22
4 2 15 20 3 1 2 5 5 8 25 4 2 6 3 4 6 5 4 3 5 4 3 2 4 1 7 5 2 6 3 4 5 5 1 5 4 3 4 6 17 16 12 15 24
4 3 20 16 2 2 6 6 8 13 6 7 7 6 2 4 3 4 5 5 12 6 4 2 3 3 10 7 7 6 4 3 2 2 3 5 3 3 9 12 16 20 15 12 14
3 3 6 19 14 1 4 7 4 12 3 6 3 5 7 7 6 4 3 6 9 7 6 5 3 5 5 5 4 7 7 4 5 2 2 2 5 5 6 8 8 14 15 15 12
6 2 3 3 6 7 6 5 8 3 5 7 6 7 3 6 6 7 7 3 6 3 1 5 3 2 2 5 3 3 7 8 3 6 5 7 9 4 5 6 12 15 13 9 7
5 5 6 6 13 5 6 3 1 7 4 5 9 13 12 6 3 3 3 3 1 3 3 3 1 3 8 7 9 5 8 6 4 6 9 13 8 4 12 19 11 11 11 8 6
12 3 3 6 10 6 6 3 4 3 16 14 11 6 9 4 5 7 4 4 4 3 0 3 4 3 4 5 6 5 7 7 6 6 8 5 6 6 5 10 12 14 10 8 5
Wind_Direction
317 305 298 295 291 291 289 288 291 300 303 307 312 317 316 312 310 298 260 298 314 314 307 308 321 336 348 266 222 199 66 136 169 145 176 108 106 128 137 140 187 177 148 159 163
317 306 297 291 287 283 281 281 284 289 294 299 304 310 311 311 310 275 245 278 305 303 302 315 326 337 324 286 230 104 92 53 154 159 149 144 131 153 121 139 139 141 127 141 161
310 304 298 291 288 283 277 275 277 282 286 289 295 301 303 314 322 298 263 242 303 294 306 313 320 333 299 130 209 137 130 145 122 145 150 155 153 167 137 206 203 173 158 148 157
312 303 299 294 289 283 278 276 275 276 279 283 287 291 294 307 275 67 16 329 292 296 303 311 332 338 281 34 159 107 119 161 175 168 160 166 155 153 167 190 175 166 156 161 170
319 308 300 294 290 285 280 278 275 275 277 279 282 285 290 277 261 288 307 305 295 287 295 324 331 329 357 354 1 125 188 185 181 178 177 149 162 175 159 137 154 157 169 176 181
319 309 301 296 289 284 279 276 274 274 276 278 276 277 272 260 172 148 21 288 320 271 303 339 321 339 351 333 274 154 217 197 205 194 196 161 170 123 152 148 159 166 174 178 186
321 311 301 294 287 282 277 273 269 268 270 273 268 268 259 237 137 191 242 308 307 276 322 332 331 344 343 340 336 307 216 330 205 159 155 153 112 147 161 158 163 173 181 185 195
323 312 301 292 283 278 273 269 261 256 257 257 264 278 254 190 239 248 236 257 260 293 301 309 316 321 316 313 336 332 116 188 247 187 203 148 249 163 167 164 171 182 184 188 195
324 313 301 287 275 270 267 257 249 240 242 241 247 271 260 216 224 217 196 223 249 260 273 289 305 315 326 44 354 354 261 196 117 219 229 146 229 197 178 176 178 188 193 198 206
326 315 301 283 270 256 254 248 241 229 229 224 229 289 230 226 203 215 194 223 259 232 241 259 291 13 347 65 258 308 200 223 182 230 228 229 273 178 186 181 182 185 189 192 194
326 315 298 277 257 236 237 221 254 242 242 219 211 245 329 171 172 151 174 210 245 218 208 255 86 233 238 199 235 256 30 303 238 200 165 217 238 206 200 201 180 184 182 188 196
325 311 297 267 237 218 214 206 115 2 293 271 255 263 262 274 175 185 176 216 229 236 340 358 243 249 237 260 231 320 313 294 296 218 127 186 262 243 196 208 191 187 186 190 192
320 308 293 247 210 209 225 193 1 340 294 277 241 236 237 189 192 204 193 203 191 260 248 203 249 255 239 260 72 313 268 282 233 344 327 161 324 335 215 202 203 195 193 193 192
312 302 270 200 185 183 139 123 272 276 49 267 202 238 233 221 264 225 198 187 198 216 244 223 260 222 234 233 115 314 206 271 236 63 262 88 280 317 245 194 198 189 190 193 194
303 288 231 179 157 141 70 128 238 328 61 155 182 167 187 194 281 222 195 205 231 259 122 259 300 286 152 205 131 242 256 67 74 105 50 92 91 264 8 247 226 198 193 195 197
298 264 218 195 174 144 138 88 165 44 278 205 164 147 110 214 255 168 184 206 233 253 250 245 265 223 211 245 195 254 29 37 36 48 16 14 122 298 203 217 268 228 210 196 195
290 248 215 191 166 161 156 66 56 130 312 345 173 156 162 203 238 175 184 199 178 101 300 328 272 252 192 93 341 83 53 351 2 2 233 318 64 250 282 321 72 70 64 159 195
288 250 221 179 152 165 160 60 113 277 264 305 174 165 176 178 242 198 162 204 257 112 342 247 334 161 213 184 184 204 146 158 285 209 264 347 40 3 75 85 72 75 81 65 54
315 255 219 166 154 140 114 80 211 205 223 350 41 136 235 217 185 152 208 220 203 176 183 41 336 1 159 178 130 257 300 193 136 320 61 328 342 143 39 47 53 65 77 79 63
17 351 168 167 166 149 80 229 246 209 292 7 281 167 302 216 169 183 141 283 106 191 140 312 28 345 309 3 5 116 198 34 12 87 53 302 323 246 26 37 47 58 88 91 95
9 358 147 170 166 150 162 235 273 266 297 191 223 87 3 8 102 125 116 356 100 73 71 68 70 300 26 28 330 356 1 25 109 137 152 184 261 226 200 146 92 90 105 122 83
1 31 162 161 118 203 194 221 317 301 321 309 87 147 122 359 3 76 54 92 44 84 72 7 123 334 244 272 188 107 26 79 108 287 33 135 272 233 58 81 106 84 111 105 95
5 345 175 178 129 294 278 285 272 277 263 16 26 65 149 164 138 192 125 39 72 66 95 2 26 21 341 359 4 51 360 39 128 80 352 121 248 17 97 81 101 115 110 97 72
37 46 163 209 239 239 317 275 276 281 100 86 44 77 42 70 7 37 85 44 76 97 130 99 98 143 171 221 238 325 344 9 109 95 208 200 124 65 98 108 113 99 90 80 76
27 12 44 257 271 241 178 279 319 273 145 47 43 28 117 48 41 31 31 51 19 124 92 104 81 43 198 240 355 292 332 321 288 219 154 177 125 145 134 145 140 117 107 89 38
28 12 352 306 285 295 148 251 156 10 70 25 105 63 70 87 104 87 153 49 138 335 35 15 209 65 349 346 8 324 320 306 52 73 78 115 104 163 111 102 103 128 114 96 57
23 358 315 308 327 35 327 40 25 84 37 80 114 86 59 44 355 319 294 241 202 147 73 98 116 75 292 334 350 23 327 64 55 33 134 130 151 138 85 87 92 134 111 99 73
Height
1526 1525 1524 1524 1524 1524 1524 1523 1522 1522 1522 1521 1520 1519 1518 1516 1516 1515 1513 1512 1510 1509 1507 1507 1507 1507 1504 1503 1502 1504 1516 1526 1521 1519 1516 1513 1515 1518 1517 1517 1518 1521 1524 1528 1529
1525 1524 1523 1523 1522 1522 1522 1521 1521 1521 1520 1520 1519 1519 1517 1516 1515 1513 1513 1511 1509 1509 1507 1507 1504 1504 1503 1501 1500 1501 1518 1511 1506 1508 1509 1510 1512 1514 1518 1519 1519 1522 1525 1529 1533
1523 1523 1522 1521 1520 1520 1520 1520 1519 1519 1519 1518 1518 1518 1517 1516 1514 1511 1510 1510 1509 1508 1509 1507 1506 1505 1500 1499 1498 1500 1511 1504 1504 1506 1506 1507 1509 1510 1515 1520 1513 1516 1522 1528 1534
1522 1521 1520 1519 1519 1518 1518 1518 1517 1517 1517 1517 1516 1516 1515 1516 1518 1511 1510 1510 1509 1509 1508 1506 1505 1502 1501 1496 1497 1501 1499 1500 1502 1502 1503 1505 1506 1509 1510 1510 1510 1514 1522 1528 1532
1520 1519 1518 1517 1517 1516 1516 1516 1515 1515 1515 1515 1514 1514 1514 1514 1511 1510 1510 1509 1508 1508 1507 1507 1504 1503 1504 1499 1499 1498 1498 1498 1498 1500 1501 1502 1504 1504 1509 1510 1514 1519 1523 1526 1530
1519 1517 1516 1515 1515 1514 1514 1514 1514 1513 1513 1513 1513 1512 1513 1513 1508 1508 1509 1509 1507 1507 1507 1507 1507 1504 1499 1499 1499 1495 1495 1496 1496 1498 1500 1501 1503 1504 1511 1509 1512 1516 1519 1522 1526
1517 1515 1514 1513 1513 1512 1512 1512 1512 1512 1511 1511 1511 1511 1510 1506 1507 1507 1508 1508 1507 1507 1508 1507 1506 1505 1502 1499 1497 1498 1499 1497 1496 1496 1499 1499 1507 1506 1506 1507 1510 1513 1515 1518 1521
1515 1513 1512 1511 1510 1510 1510 1510 1510 1510 1510 1510 1510 1509 1505 1503 1504 1506 1507 1506 1507 1507 1508 1508 1507 1504 1502 1502 1500 1501 1500 1513 1497 1494 1495 1497 1517 1502 1503 1506 1509 1512 1513 1516 1519
1512 1511 1509 1508 1508 1508 1508 1508 1509 1509 1509 1509 1510 1509 1502 1501 1501 1504 1505 1505 1507 1507 1508 1508 1507 1505 1504 1510 1518 1509 1520 1510 1503 1493 1493 1497 1505 1498 1500 1502 1505 1509 1510 1513 1514
1510 1508 1507 1506 1506 1506 1507 1507 1508 1508 1508 1509 1509 1511 1501 1498 1499 1501 1503 1506 1507 1508 1508 1508 1508 1510 1511 1522 1545 1523 1512 1501 1508 1496 1494 1495 1496 1494 1497 1499 1501 1504 1507 1508 1510
1507 1505 1504 1504 1504 1505 1506 1507 1511 1511 1507 1501 1500 1498 1497 1497 1499 1501 1503 1505 1506 1506 1510 1507 1516 1523 1509 1510 1508 1510 1501 1505 1492 1490 1494 1497 1494 1495 1492 1496 1499 1501 1503 1505 1506
1505 1503 1502 1502 1503 1504 1505 1506 1506 1509 1502 1496 1497 1497 1496 1498 1500 1501 1503 1505 1503 1508 1506 1513 1521 1500 1501 1502 1504 1498 1502 1505 1494 1487 1493 1495 1495 1487 1489 1489 1491 1494 1498 1501 1505
1502 1501 1500 1500 1501 1503 1504 1505 1506 1506 1504 1494 1492 1493 1494 1496 1496 1497 1501 1502 1504 1508 1508 1518 1501 1493 1498 1501 1498 1500 1505 1505 1504 1492 1490 1492 1501 1493 1482 1483 1489 1490 1491 1496 1499
1499 1498 1498 1499 1503 1502 1503 1506 1505 1506 1515 1496 1490 1489 1492 1494 1493 1493 1497 1499 1502 1505 1503 1507 1490 1495 1495 1494 1496 1509 1493 1494 1495 1506 1524 1495 1535 1500 1482 1482 1483 1487 1492 1494 1498
1497 1496 1497 1499 1499 1501 1504 1503 1504 1506 1528 1488 1488 1486 1488 1492 1489 1487 1492 1497 1498 1499 1502 1504 1495 1493 1494 1493 1490 1501 1488 1492 1493 1501 1507 1506 1524 1504 1488 1486 1483 1483 1485 1489 1491
1495 1494 1495 1497 1499 1501 1501 1502 1504 1520 1529 1492 1482 1485 1489 1490 1489 1490 1492 1494 1493 1495 1495 1496 1487 1486 1486 1483 1485 1484 1488 1501 1506 1517 1535 1514 1517 1515 1500 1486 1478 1476 1476 1482 1488
1493 1493 1494 1496 1499 1500 1501 1502 1521 1531 1489 1491 1487 1483 1488 1492 1489 1490 1492 1495 1504 1513 1512 1495 1488 1481 1482 1489 1486 1487 1513 1545 1540 1548 1539 1514 1515 1509 1487 1482 1487 1483 1484 1491 1490
1491 1491 1492 1496 1498 1500 1501 1506 1523 1500 1497 1482 1481 1486 1494 1489 1489 1489 1494 1501 1494 1500 1513 1518 1516 1486 1479 1485 1494 1494 1510 1542 1540 1553 1535 1507 1521 1519 1500 1491 1490 1487 1488 1496 1504
1490 1490 1491 1496 1497 1499 1502 1521 1513 1500 1487 1485 1484 1494 1495 1486 1488 1489 1493 1495 1490 1492 1514 1512 1505 1478 1477 1477 1484 1493 1507 1496 1519 1524 1529 1521 1510 1500 1500 1496 1494 1492 1487 1493 1506
1491 1490 1490 1495 1497 1500 1504 1513 1499 1486 1478 1478 1495 1489 1497 1487 1494 1493 1494 1485 1486 1485 1481 1495 1509 1491 1481 1478 1482 1486 1484 1512 1524 1537 1546 1532 1522 1522 1512 1507 1500 1497 1493 1500 1511
1491 1490 1492 1495 1498 1500 1512 1506 1490 1481 1482 1484 1484 1493 1491 1490 1485 1488 1492 1486 1482 1485 1482 1492 1503 1504 1490 1498 1503 1501 1505 1503 1509 1523 1547 1551 1540 1509 1513 1505 1501 1501 1502 1507 1511
1491 1492 1493 1495 1500 1500 1504 1493 1486 1480 1476 1476 1473 1482 1481 1480 1487 1492 1495 1488 1483 1481 1495 1495 1511 1522 1506 1495 1490 1494 1502 1511 1529 1522 1527 1537 1536 1505 1513 1509 1505 1508 1511 1511 1512
1491 1492 1495 1496 1506 1505 1494 1489 1487 1481 1480 1476 1478 1475 1475 1489 1501 1489 1488 1488 1483 1485 1495 1496 1518 1537 1520 1509 1495 1505 1503 1503 1511 1520 1529 1541 1536 1509 1514 1511 1510 1510 1512 1512 1514
1492 1495 1495 1497 1495 1495 1496 1490 1484 1473 1473 1475 1478 1476 1480 1490 1491 1494 1492 1491 1489 1491 1493 1495 1517 1528 1544 1526 1516 1514 1505 1503 1514 1529 1527 1527 1529 1521 1517 1516 1517 1515 1513 1513 1516
1494 1496 1497 1500 1495 1492 1492 1488 1486 1477 1470 1474 1480 1484 1482 1500 1499 1503 1496 1496 1495 1494 1495 1499 1520 1513 1514 1512 1508 1507 1505 1503 1505 1504 1515 1522 1522 1518 1516 1516 1515 1516 1516 1515 1515
1497 1498 1497 1497 1491 1485 1486 1482 1481 1478 1476 1484 1490 1490 1488 1503 1501 1505 1501 1501 1502 1497 1496 1499 1517 1514 1520 1508 1509 1509 1504 1499 1500 1506 1515 1515 1523 1516 1517 1516 1516 1515 1515 1516 1516
1500 1499 1499 1496 1491 1488 1489 1483 1485 1480 1485 1484 1486 1490 1494 1497 1496 1495 1495 1495 1495 1496 1501 1505 1514 1526 1531 1516 1514 1525 1513 1507 1508 1505 1510 1522 1518 1517 1518 1516 1516 1516 1517 1517 1516